Location: Franzen
(48.6167°N, 15.3833°E)
Time: 00:25:10
(UTC+00:00)

Cosmos 2219 - Pass Details

Date: 31 July 2021
Orbit: 834 x 859 km, 71.1° (Epoch: 22 September)

Event Time Altitude Azimuth Distance (km) Brightness Sun altitude
Exits shadow 00:09:54 29° 247° (WSW) 1,514 4.2 -21.6°
Maximum altitude 00:12:28 49° 305° (NW) 1,102 3.9 -21.5°
Drops below altitude 10° 00:18:03 10° 20° (NNE) 2,506 6.8 -21.2°
Sets 00:20:37 0° 26° (NNE) 3,447 7.9 -21.0°
